Powrót do katalogu

SL-12 DEB

LostHEO
NORAD 41694·DEBRIS·🇷🇺 Russia

Wystrzelony Oct 26, 2007 z Baikonur Cosmodrome

Loading…

Następne Przeloty (najbliższe 24 godziny)

TLE

NieaktualneSource: Space-Track

Epoka: Dec 29, 2019, 10:23 UTC

1 41694U 07052AB  19363.43321418  .00000390  00000-0  28734-2 0  9994
2 41694  65.7135  63.9133 5654953 310.6131  12.4573  4.21529487 74690

Śledź SL-12 DEB w czasie rzeczywistym z AllMySat

Download on the App Store